When you browse on this site, cookies collect data to enhance your experience and personalize the content and advertising you see.
Visit our Privacy Policy to learn more. By continuing to use the site, you agree to this use of cookies and data.
  • In Hungary
  • List of Countries
  • For 7 days
  • Water Temperature
  • Weather Map
  • News
  • Weather Widgets
  • user-avatar
    Login

    Hourly Weather Bela Cruz

    Today, 21 November, Thursday

    Time Temperature Precipitation Wind Pressure Humidity
    00:00 +27°C° 0.1 mm 3 mps 755 mmHg 84%
    01:00 +27°C° 0 mm 3 mps 755 mmHg 81%
    02:00 +28°C° 0 mm 4 mps 755 mmHg 78%
    03:00 +28°C° 0 mm 4 mps 755 mmHg 75%
    04:00 +28°C° 0.1 mm 4 mps 755 mmHg 75%
    05:00 +28°C° 0.1 mm 4 mps 756 mmHg 74%
    06:00 +28°C° 0.1 mm 4 mps 756 mmHg 73%
    07:00 +29°C° 0 mm 4 mps 756 mmHg 66%
    08:00 +32°C° 0 mm 5 mps 757 mmHg 59%
    09:00 +33°C° 0 mm 5 mps 757 mmHg 52%
    10:00 +35°C° 0 mm 5 mps 756 mmHg 47%
    11:00 +36°C° 0 mm 5 mps 756 mmHg 41%
    12:00 +39°C° 0 mm 5 mps 755 mmHg 35%
    13:00 +38°C° 0 mm 6 mps 755 mmHg 38%
    14:00 +38°C° 0 mm 7 mps 754 mmHg 40%
    15:00 +37°C° 0 mm 8 mps 753 mmHg 43%
    16:00 +34°C° 0 mm 7 mps 753 mmHg 53%
    17:00 +30°C° 0 mm 7 mps 754 mmHg 62%
    18:00 +28°C° 0 mm 6 mps 754 mmHg 72%
    19:00 +28°C° 0 mm 6 mps 754 mmHg 73%
    20:00 +28°C° 0 mm 5 mps 755 mmHg 73%
    21:00 +27°C° 0 mm 4 mps 755 mmHg 73%
    22:00 +27°C° 0 mm 4 mps 755 mmHg 77%
    23:00 +26°C° 0 mm 3 mps 755 mmHg 80%

    Tomorrow, 22 November, Friday

    Time Temperature Precipitation Wind Pressure Humidity
    00:00 +26°C° 0 mm 3 mps 755 mmHg 84%
    01:00 +26°C° 0 mm 3 mps 755 mmHg 85%
    02:00 +25°C° 0 mm 3 mps 754 mmHg 87%
    03:00 +25°C° 0 mm 3 mps 754 mmHg 89%
    04:00 +25°C° 0 mm 3 mps 755 mmHg 88%
    05:00 +25°C° 0 mm 3 mps 755 mmHg 88%
    06:00 +26°C° 0 mm 3 mps 755 mmHg 87%
    07:00 +28°C° 0 mm 4 mps 756 mmHg 75%
    08:00 +30°C° 0 mm 4 mps 756 mmHg 64%
    09:00 +33°C° 0 mm 5 mps 757 mmHg 52%
    10:00 +35°C° 0 mm 5 mps 756 mmHg 46%
    11:00 +37°C° 0 mm 5 mps 756 mmHg 40%
    12:00 +40°C° 0 mm 6 mps 755 mmHg 34%
    13:00 +39°C° 0 mm 6 mps 755 mmHg 36%
    14:00 +38°C° 0 mm 6 mps 754 mmHg 38%
    15:00 +38°C° 0 mm 7 mps 753 mmHg 40%
    16:00 +34°C° 0 mm 6 mps 754 mmHg 50%
    17:00 +32°C° 0 mm 5 mps 754 mmHg 60%
    18:00 +29°C° 0 mm 5 mps 754 mmHg 69%
    19:00 +28°C° 0 mm 5 mps 755 mmHg 73%
    20:00 +28°C° 0 mm 4 mps 755 mmHg 76%
    21:00 +27°C° 0 mm 4 mps 756 mmHg 80%
    22:00 +27°C° 0 mm 4 mps 756 mmHg 82%
    23:00 +27°C° 0 mm 3 mps 756 mmHg 85%

    Day after tomorrow, 23 November, Saturday

    Time Temperature Precipitation Wind Pressure Humidity
    00:00 +26°C° 0 mm 3 mps 756 mmHg 87%
    01:00 +26°C° 0 mm 3 mps 755 mmHg 89%
    02:00 +26°C° 0 mm 3 mps 755 mmHg 91%
    03:00 +26°C° 0 mm 2 mps 755 mmHg 93%
    04:00 +26°C° 0 mm 3 mps 755 mmHg 90%
    05:00 +27°C° 0 mm 3 mps 755 mmHg 86%
    06:00 +28°C° 0 mm 4 mps 755 mmHg 82%
    07:00 +29°C° 0 mm 4 mps 756 mmHg 73%
    08:00 +32°C° 0 mm 5 mps 756 mmHg 65%
    09:00 +33°C° 0 mm 5 mps 756 mmHg 57%
    10:00 +35°C° 0 mm 5 mps 756 mmHg 50%
    11:00 +36°C° 0 mm 5 mps 756 mmHg 44%
    12:00 +39°C° 0 mm 5 mps 756 mmHg 38%
    13:00 +37°C° 0 mm 5 mps 755 mmHg 41%
    14:00 +36°C° 0 mm 5 mps 754 mmHg 44%
    15:00 +35°C° 0 mm 6 mps 754 mmHg 47%
    16:00 +33°C° 0 mm 5 mps 754 mmHg 56%
    17:00 +32°C° 0 mm 5 mps 754 mmHg 65%
    18:00 +29°C° 0 mm 4 mps 755 mmHg 74%
    19:00 +28°C° 0 mm 4 mps 755 mmHg 78%
    20:00 +28°C° 0 mm 4 mps 756 mmHg 82%
    21:00 +27°C° 0 mm 3 mps 756 mmHg 86%
    22:00 +27°C° 0 mm 3 mps 756 mmHg 88%
    23:00 +26°C° 0 mm 3 mps 756 mmHg 90%

    24 November, Sunday

    Time Temperature Precipitation Wind Pressure Humidity
    00:00 +26°C° 0 mm 2 mps 755 mmHg 92%
    01:00 +26°C° 0 mm 3 mps 755 mmHg 89%
    02:00 +27°C° 0 mm 3 mps 754 mmHg 86%
    03:00 +28°C° 0 mm 3 mps 754 mmHg 82%
    04:00 +28°C° 0 mm 3 mps 754 mmHg 80%
    05:00 +28°C° 0 mm 4 mps 755 mmHg 77%
    06:00 +29°C° 0 mm 4 mps 755 mmHg 75%
    07:00 +30°C° 0.1 mm 4 mps 755 mmHg 68%
    08:00 +33°C° 0.1 mm 5 mps 756 mmHg 60%
    09:00 +34°C° 0.1 mm 5 mps 756 mmHg 53%
    10:00 +35°C° 0 mm 5 mps 756 mmHg 50%
    11:00 +36°C° 0 mm 5 mps 755 mmHg 47%
    12:00 +37°C° 0 mm 5 mps 755 mmHg 44%
    13:00 +38°C° 0 mm 6 mps 754 mmHg 44%
    14:00 +38°C° 0 mm 6 mps 754 mmHg 44%
    15:00 +38°C° 0 mm 6 mps 753 mmHg 44%
    16:00 +35°C° 0 mm 6 mps 753 mmHg 52%
    17:00 +32°C° 0 mm 5 mps 754 mmHg 61%
    18:00 +29°C° 0 mm 5 mps 754 mmHg 70%
    19:00 +29°C° 0 mm 4 mps 755 mmHg 74%
    20:00 +28°C° 0 mm 4 mps 755 mmHg 78%
    21:00 +28°C° 0 mm 3 mps 756 mmHg 83%
    22:00 +27°C° 0 mm 3 mps 755 mmHg 84%
    23:00 +27°C° 0 mm 3 mps 755 mmHg 86%

    25 November, Monday

    Time Temperature Precipitation Wind Pressure Humidity
    00:00 +27°C° 0 mm 2 mps 755 mmHg 87%
    01:00 +26°C° 0 mm 2 mps 754 mmHg 89%
    02:00 +26°C° 0 mm 2 mps 754 mmHg 91%
    03:00 +26°C° 0 mm 2 mps 754 mmHg 92%
    04:00 +26°C° 0 mm 2 mps 754 mmHg 91%
    05:00 +26°C° 0 mm 2 mps 755 mmHg 89%
    06:00 +27°C° 0 mm 2 mps 755 mmHg 88%
    07:00 +28°C° 0 mm 3 mps 755 mmHg 78%
    08:00 +30°C° 0 mm 4 mps 756 mmHg 69%
    09:00 +33°C° 0 mm 4 mps 756 mmHg 59%
    10:00 +34°C° 0 mm 4 mps 756 mmHg 56%
    11:00 +35°C° 0 mm 5 mps 755 mmHg 52%
    12:00 +35°C° 0 mm 5 mps 755 mmHg 49%
    13:00 +36°C° 0 mm 5 mps 754 mmHg 48%
    14:00 +36°C° 0 mm 6 mps 754 mmHg 47%
    15:00 +36°C° 0 mm 6 mps 753 mmHg 46%
    16:00 +34°C° 0 mm 5 mps 753 mmHg 53%
    17:00 +32°C° 0 mm 5 mps 754 mmHg 61%
    18:00 +29°C° 0 mm 5 mps 754 mmHg 69%
    19:00 +28°C° 0 mm 4 mps 754 mmHg 74%
    20:00 +28°C° 0 mm 4 mps 755 mmHg 78%
    21:00 +27°C° 0 mm 3 mps 755 mmHg 83%
    22:00 +27°C° 0 mm 3 mps 755 mmHg 85%
    23:00 +26°C° 0 mm 2 mps 755 mmHg 87%

    26 November, Tuesday

    Time Temperature Precipitation Wind Pressure Humidity
    00:00 +26°C° 0 mm 2 mps 755 mmHg 89%
    01:00 +26°C° 0 mm 2 mps 754 mmHg 90%
    02:00 +25°C° 0 mm 2 mps 754 mmHg 92%
    03:00 +25°C° 0 mm 2 mps 753 mmHg 93%
    04:00 +26°C° 0 mm 2 mps 754 mmHg 91%
    05:00 +26°C° 0 mm 2 mps 754 mmHg 88%
    06:00 +26°C° 0 mm 3 mps 755 mmHg 86%
    07:00 +29°C° 0 mm 3 mps 755 mmHg 74%
    08:00 +32°C° 0 mm 4 mps 755 mmHg 63%
    09:00 +34°C° 0 mm 5 mps 756 mmHg 52%
    10:00 +34°C° 0 mm 5 mps 756 mmHg 51%
    11:00 +34°C° 0 mm 5 mps 755 mmHg 51%
    12:00 +34°C° 0 mm 5 mps 755 mmHg 50%
    13:00 +35°C° 0 mm 5 mps 754 mmHg 48%
    14:00 +35°C° 0 mm 5 mps 754 mmHg 45%
    15:00 +36°C° 0 mm 5 mps 753 mmHg 43%
    16:00 +34°C° 0 mm 5 mps 754 mmHg 51%
    17:00 +32°C° 0 mm 4 mps 754 mmHg 60%
    18:00 +29°C° 0 mm 4 mps 755 mmHg 68%
    19:00 +29°C° 0 mm 4 mps 755 mmHg 73%
    20:00 +28°C° 0 mm 4 mps 755 mmHg 77%
    21:00 +28°C° 0 mm 4 mps 756 mmHg 81%
    22:00 +27°C° 0 mm 3 mps 755 mmHg 83%
    23:00 +27°C° 0 mm 3 mps 755 mmHg 85%
    Show more